Morrisville, VT

2:50 PM EDT on August 18, 2017 (GMT -0400)
Morrisville Stowe State

Weather History for KMVL - October, 2013

Change the Weather History Date:

Thursday, October 3, 2013

  Actual Average Record
Temperature  
Mean Temperature 57 °F 50 °F  
Max Temperature 71 °F 62 °F 79 °F (2005)
Min Temperature 42 °F 39 °F 32 °F (2003)
Degree Days  
Heating Degree Days 8 15  
Month to date heating degree days 16 43  
Since 1 July heating degree days 330 375  
Cooling Degree Days 0 0  
Month to date cooling degree days 0 0  
Year to date cooling degree days 401 265  
Growing Degree Days 6 (Base 50)    
Moisture  
Dew Point 45 °F    
Average Humidity 66    
Maximum Humidity 93    
Minimum Humidity 39    
Precipitation  
Precipitation 0.00 in 0.11 in 0.18 in (2012)
Month to date precipitation 0.00 0.33  
Year to date precipitation 33.04 27.46  
Sea Level Pressure  
Sea Level Pressure 30.08 in    
Wind  
Wind Speed 2 mph (NNE)    
Max Wind Speed 9 mph    
Max Gust Speed 14 mph    
Visibility 10 miles    
Events      
T = Trace of Precipitation, MM = Missing Value Source: NWS Daily Summary

Daily Weather History Graph

Daily Weather History Graph

Search for Another Location

Airport or City:

Trip Planner

Search our weather history database for the weather conditions in past years. The results will help you decide how hot, cold, wet, or windy it might be!

Date:

Astronomy

Oct. 03, 2013 Rise Set
Actual Time 6:50 AM EDT 6:27 PM EDT
Civil Twilight 6:21 AM EDT 6:56 PM EDT
Nautical Twilight 5:48 AM EDT 7:29 PM EDT
Astronomical Twilight 5:14 AM EDT 8:03 PM EDT
Moon 5:19 AM EDT (10/3) 5:35 PM EDT (10/3)
Length of Visible Light 12h 34m
Length of Day
11h 36m
Waning Crescent, 2% of the Moon is Illuminated
Oct 3
Waning Crescent
Oct 4
New
Oct 11
First Quarter
Oct 18
Full
Oct 26
Last Quarter

Hourly Weather History & Observations

Time (EDT) Temp. Dew Point Humidity Pressure Visibility Wind Dir Wind Speed Gust Speed Precip Events Conditions
12:54 AM 61.0 °F 46.0 °F 58% 29.99 in 10.0 mi North 5.8 mph - N/A   Clear
1:54 AM 57.0 °F 46.0 °F 67% 30.02 in 10.0 mi Calm Calm - N/A   Clear
2:54 AM 54.0 °F 45.0 °F 72% 30.02 in 10.0 mi Calm Calm - N/A   Clear
3:54 AM 46.9 °F 44.1 °F 90% 30.03 in 10.0 mi Calm Calm - N/A   Clear
4:54 AM 45.0 °F 43.0 °F 93% 30.05 in 10.0 mi Calm Calm - N/A   Clear
5:54 AM 44.1 °F 41.0 °F 89% 30.07 in 10.0 mi Calm Calm - N/A   Clear
6:54 AM 42.1 °F 39.9 °F 92% 30.10 in 10.0 mi Calm Calm - N/A   Clear
7:54 AM 45.0 °F 43.0 °F 93% 30.12 in 10.0 mi Calm Calm - N/A   Clear
8:54 AM 52.0 °F 46.9 °F 83% 30.13 in 10.0 mi Calm Calm - N/A   Clear
9:54 AM 60.1 °F 48.0 °F 64% 30.13 in 10.0 mi North 4.6 mph - N/A   Clear
10:54 AM 63.0 °F 46.0 °F 54% 30.13 in 10.0 mi NE 5.8 mph - N/A   Clear
11:54 AM 66.0 °F 43.0 °F 43% 30.12 in 10.0 mi Variable 4.6 mph - N/A   Clear
12:54 PM 68.0 °F 43.0 °F 40% 30.10 in 10.0 mi NNE 5.8 mph - N/A   Clear
1:54 PM 70.0 °F 44.1 °F 39% 30.08 in 10.0 mi Variable 4.6 mph - N/A   Clear
2:54 PM 70.0 °F 44.1 °F 39% 30.07 in 10.0 mi NNE 5.8 mph - N/A   Clear
3:54 PM 70.0 °F 44.1 °F 39% 30.06 in 10.0 mi NNE 4.6 mph - N/A   Clear
4:54 PM 68.0 °F 45.0 °F 43% 30.05 in 10.0 mi Calm Calm - N/A   Clear
5:54 PM 64.0 °F 46.9 °F 54% 30.06 in 10.0 mi NNW 3.5 mph - N/A   Clear
6:54 PM 57.0 °F 48.9 °F 74% 30.08 in 10.0 mi South 5.8 mph - N/A   Clear
7:54 PM 54.0 °F 48.9 °F 83% 30.09 in 10.0 mi Calm Calm - N/A   Clear
8:54 PM 51.1 °F 46.9 °F 86% 30.12 in 10.0 mi Calm Calm - N/A   Clear
9:54 PM 48.0 °F 45.0 °F 89% 30.12 in 10.0 mi Calm Calm - N/A   Clear
10:54 PM 46.9 °F 44.1 °F 90% 30.12 in 10.0 mi Calm Calm - N/A   Clear